Content
SEND FEEDBACK

Daily
Averages
Monthly
Summary
United Kingdom

LONDON, ENGLAND


Home > Europe > United Kingdom > England
Elevation: 203 feet     Latitude: 51 09N     Longitude: 000 11W

WEATHER
 
SELECT A DAY
Number of Records: 292,605;   Date Range: 7/1/96 - 7/20/14
 
SHARE

PRINT THIS DATA

[ ← Previous Day ]
WEATHER ALMANAC - JANUARY 30, 2013
[ Next Day → ]
[ °C ]   °F
Weather ElementAverageHighLow
Temperature49.6 °F53.6 °F (12:50 am)44.6 °F (10:20 pm)
Dewpoint42 °F51.8 °F (12:50 am)35.6 °F (4:20 pm)
Humidity76.3 %94 % (12:50 am)58 % (2:50 pm)
Barometer29.78 in30.06 in (11:20 pm)29.53 in (3:50 am)
Wind Speed15.8 mph23 mph (12:20 pm)
Wind Gust42.6 mph (2:50 pm)
Weather ElementAverage
Visibility5.6 mi
Wind DirectionWSW (242.6 °)

Weather ElementTotal
Precipitation---
Heating Degree Days15.9 (Base 65)
Averaged from 46 records on January 30, 2013
WEATHER CONDITIONS BREAKOUT
WIND DIRECTION BREAKOUT
WEATHER BY HOUR - JANUARY 30, 2013
[ °C ]   °F
Local TimeTemperatureDewpointHumidityBarometerVisibilityWind DirectionWind SpeedGust SpeedPrecipitationEventsConditions
12:50 AM53.6 °F51.8 °F94 %29.59 inSW (220°)20.7 mph34.5 mphRainLight Rain
1:20 AM53.6 °F51.8 °F94 %29.59 inSW (220°)21.9 mphRainRain
1:50 AM53.6 °F50.0 °F88 %29.56 inSW (220°)19.6 mph33.4 mphRainRain
2:20 AM53.6 °F51.8 °F94 %29.56 in4.3 miSW (230°)20.7 mph34.5 mphRainLight Rain
2:50 AM53.6 °F51.8 °F94 %29.56 in3.1 miSW (230°)18.4 mphRainLight Rain
3:20 AM53.6 °F51.8 °F94 %29.56 inSW (230°)18.4 mph32.2 mphRainLight Rain
3:50 AM53.6 °F51.8 °F94 %29.53 in3.7 miSW (230°)19.6 mph31.1 mphRainLight Rain
4:20 AM53.6 °F51.8 °F94 %29.56 in3.1 miSW (230°)18.4 mphRainLight Rain
4:50 AM50.0 °F48.2 °F94 %29.59 in3.1 miWNW (290°)17.3 mphRainLight Rain
5:20 AM50.0 °F46.4 °F87 %29.59 in3.1 miWest (270°)13.8 mphRainLight Rain
5:50 AM48.2 °F46.4 °F93 %29.59 in6.2 miSW (220°)6.9 mphMostly Cloudy
6:20 AM48.2 °F46.4 °F93 %29.62 inSW (230°)8.1 mphClear
6:50 AM48.2 °F46.4 °F93 %29.62 inSW (230°)9.2 mphClear
7:20 AM48.2 °F44.6 °F87 %29.65 inWSW (240°)10.4 mphClear
7:50 AM48.2 °F44.6 °F87 %29.65 in6.2 miWSW (240°)11.5 mphPartly Cloudy
8:20 AM48.2 °F44.6 °F87 %29.68 in6.2 miWSW (240°)13.8 mphScattered Clouds
8:50 AM50.0 °F44.6 °F82 %29.68 in6.2 miWSW (240°)12.7 mphScattered Clouds
9:20 AM50.0 °F44.6 °F82 %29.68 in6.2 miSW (230°)12.7 mphPartly Cloudy
9:50 AM50.0 °F44.6 °F82 %29.71 in6.2 miSW (230°)13.8 mphPartly Cloudy
10:20 AM50.0 °F44.6 °F82 %29.71 in6.2 miWSW (240°)16.1 mphRainLight Rain Showers
10:50 AM50.0 °F44.6 °F82 %29.74 in6.2 miWSW (240°)13.8 mphMostly Cloudy
11:50 AM51.8 °F42.8 °F71 %29.74 in6.2 miWSW (250°)19.6 mphPartly Cloudy
12:20 PM51.8 °F41.0 °F67 %29.77 in6.2 miWSW (250°)23.0 mph35.7 mphScattered Clouds
12:50 PM51.8 °F41.0 °F67 %29.77 in6.2 miWest (260°)19.6 mphScattered Clouds
1:20 PM51.8 °F39.2 °F62 %29.80 in6.2 miWest (260°)20.7 mphScattered Clouds
1:50 PM51.8 °F39.2 °F62 %29.80 in6.2 miWest (270°)19.6 mph31.1 mphScattered Clouds
2:20 PM50.0 °F37.4 °F62 %29.80 in6.2 miWest (260°)23.0 mphPartly Cloudy
2:50 PM51.8 °F37.4 °F58 %29.83 in6.2 miWest (260°)20.7 mph42.6 mphPartly Cloudy
3:20 PM51.8 °F37.4 °F58 %29.83 in6.2 miWSW (250°)17.3 mphPartly Cloudy
3:50 PM50.0 °F37.4 °F62 %29.86 in6.2 miWSW (250°)18.4 mphPartly Cloudy
4:20 PM50.0 °F35.6 °F58 %29.86 in6.2 miWSW (250°)19.6 mphPartly Cloudy
4:50 PM50.0 °F35.6 °F58 %29.89 in6.2 miWSW (240°)16.1 mphPartly Cloudy
5:20 PM50.0 °F35.6 °F58 %29.89 inWSW (250°)17.3 mphClear
5:50 PM48.2 °F35.6 °F62 %29.92 inWSW (250°)16.1 mph29.9 mphClear
6:20 PM48.2 °F35.6 °F62 %29.92 in6.2 miWSW (250°)18.4 mphPartly Cloudy
6:50 PM46.4 °F35.6 °F66 %29.95 in6.2 miWest (260°)17.3 mphScattered Clouds
7:20 PM46.4 °F35.6 °F66 %29.98 in6.2 miWSW (250°)18.4 mph29.9 mphPartly Cloudy
7:50 PM46.4 °F35.6 °F66 %29.98 in6.2 miWest (260°)16.1 mphPartly Cloudy
8:20 PM46.4 °F35.6 °F66 %29.98 in6.2 miWSW (250°)15.0 mphPartly Cloudy
8:50 PM46.4 °F35.6 °F66 %30.01 inWSW (240°)13.8 mphClear
9:20 PM46.4 °F35.6 °F66 %30.01 inWSW (240°)12.7 mphClear
9:50 PM46.4 °F35.6 °F66 %30.04 inSW (230°)12.7 mphClear
10:20 PM44.6 °F37.4 °F76 %30.04 inSW (230°)9.2 mphClear
10:50 PM44.6 °F37.4 °F76 %30.04 inSW (230°)8.1 mphClear
11:20 PM44.6 °F37.4 °F76 %30.06 inWSW (240°)8.1 mphClear
11:50 PM44.6 °F37.4 °F76 %30.06 inSW (230°)9.2 mphClear
Hourly data recorded from EGKK, located miles away from London, England







STORIES FROM OUR PARTNERS